Thief River Falls, MN

8:36 AM CDT on May 24, 2017 (GMT -0500)
Thief River Falls Regional

Weather History for KTVF - October, 2011

Change the Weather History Date:

Monday, October 10, 2011

  Actual Average Record
Temperature  
Mean Temperature 58 °F -  
Max Temperature 62 °F 53 °F 80 °F (2003)
Min Temperature 53 °F 36 °F 18 °F (1985)
Degree Days  
Heating Degree Days 8    
Growing Degree Days 8 (Base 50)    
Moisture  
Dew Point 51 °F    
Average Humidity 82    
Maximum Humidity 94    
Minimum Humidity 68    
Precipitation  
Precipitation 0.81 in - - ()
Sea Level Pressure  
Sea Level Pressure 29.87 in    
Wind  
Wind Speed 14 mph (SSE)    
Max Wind Speed 20 mph    
Max Gust Speed 26 mph    
Visibility 9 miles    
Events      
Averages and records for this station are not official NWS values.
T = Trace of Precipitation, MM = Missing Value Source: NWS Daily Summary

Daily Weather History Graph

Daily Weather History Graph

Search for Another Location

Airport or City:

Trip Planner

Search our weather history database for the weather conditions in past years. The results will help you decide how hot, cold, wet, or windy it might be!

Date:

Astronomy

Oct. 10, 2011 Rise Set
Actual Time 7:36 AM CDT 6:46 PM CDT
Civil Twilight 7:05 AM CDT 7:17 PM CDT
Nautical Twilight 6:29 AM CDT 7:53 PM CDT
Astronomical Twilight 5:53 AM CDT 8:29 PM CDT
Moon 5:50 PM CDT (10/10) 6:16 AM CDT (10/10)
Length of Visible Light 12h 11m
Length of Day
11h 09m
Waxing Gibbous, 98% of the Moon is Illuminated
Oct 10
Waxing Gibbous
Oct 11
Full
Oct 19
Last Quarter
Oct 26
New
Nov 2
First Quarter

Hourly Weather History & Observations

Time (CDT) Temp. Dew Point Humidity Pressure Visibility Wind Dir Wind Speed Gust Speed Precip Events Conditions
12:15 AM 55.4 °F 48.2 °F 77% 30.02 in 10.0 mi East 13.8 mph - N/A   Overcast
12:35 AM 55.4 °F 50.0 °F 82% 30.02 in 10.0 mi ESE 13.8 mph - N/A   Overcast
1:15 AM 57.2 °F 51.8 °F 82% 30.00 in 10.0 mi ESE 15.0 mph - N/A   Overcast
1:35 AM 57.2 °F 51.8 °F 82% 30.00 in 10.0 mi ESE 15.0 mph - N/A   Overcast
2:15 AM 57.2 °F 51.8 °F 82% 29.99 in 10.0 mi ESE 13.8 mph - N/A   Scattered Clouds
2:35 AM 57.2 °F 51.8 °F 82% 29.99 in 10.0 mi ESE 15.0 mph - N/A   Clear
2:55 AM 57.2 °F 51.8 °F 82% 29.98 in 10.0 mi SE 15.0 mph - N/A   Clear
3:35 AM 57.2 °F 50.0 °F 77% 29.97 in 10.0 mi SE 15.0 mph - N/A   Clear
3:55 AM 57.2 °F 50.0 °F 77% 29.96 in 10.0 mi SE 13.8 mph - N/A   Clear
4:15 AM 57.2 °F 50.0 °F 77% 29.95 in 10.0 mi SE 16.1 mph - N/A   Clear
4:35 AM 57.2 °F 50.0 °F 77% 29.95 in 10.0 mi SE 15.0 mph - N/A   Clear
5:15 AM 55.4 °F 48.2 °F 77% 29.94 in 10.0 mi ESE 13.8 mph - N/A   Clear
5:35 AM 55.4 °F 48.2 °F 77% 29.94 in 10.0 mi ESE 13.8 mph - N/A   Clear
5:55 AM 55.4 °F 48.2 °F 77% 29.94 in 10.0 mi SE 12.7 mph - N/A   Clear
6:15 AM 53.6 °F 48.2 °F 82% 29.94 in 10.0 mi SE 10.4 mph - N/A   Clear
6:35 AM 55.4 °F 48.2 °F 77% 29.93 in 10.0 mi ESE 11.5 mph - N/A   Clear
6:55 AM 55.4 °F 48.2 °F 77% 29.92 in 10.0 mi SE 12.7 mph - N/A   Clear
7:15 AM 55.4 °F 48.2 °F 77% 29.91 in 10.0 mi SE 13.8 mph - N/A   Clear
7:35 AM 55.4 °F 48.2 °F 77% 29.91 in 10.0 mi SE 15.0 mph - N/A   Clear
8:15 AM 55.4 °F 48.2 °F 77% 29.90 in 10.0 mi SE 16.1 mph - N/A   Clear
8:35 AM 57.2 °F 50.0 °F 77% 29.90 in 10.0 mi SE 16.1 mph - N/A   Clear
8:55 AM 57.2 °F 50.0 °F 77% 29.90 in 10.0 mi SE 16.1 mph - N/A   Partly Cloudy
9:15 AM 59.0 °F 50.0 °F 72% 29.89 in 10.0 mi SE 15.0 mph - N/A   Clear
9:35 AM 59.0 °F 50.0 °F 72% 29.89 in 10.0 mi SSE 13.8 mph - N/A   Clear
9:55 AM 59.0 °F 51.8 °F 77% 29.89 in 10.0 mi SSE 12.7 mph - N/A   Clear
10:15 AM 60.8 °F 51.8 °F 72% 29.89 in 10.0 mi SSE 11.5 mph - N/A   Scattered Clouds
10:35 AM 60.8 °F 51.8 °F 72% 29.89 in 10.0 mi SSE 11.5 mph - N/A   Mostly Cloudy
11:15 AM 62.6 °F 51.8 °F 68% 29.87 in 10.0 mi South 18.4 mph 25.3 mph N/A   Mostly Cloudy
11:35 AM 62.6 °F 51.8 °F 68% 29.87 in 10.0 mi SSE 19.6 mph 26.5 mph N/A   Mostly Cloudy
11:55 AM 62.6 °F 51.8 °F 68% 29.87 in 10.0 mi South 17.3 mph - N/A   Overcast
12:15 PM 60.8 °F 51.8 °F 72% 29.87 in 10.0 mi South 15.0 mph - N/A   Overcast
12:35 PM 60.8 °F 51.8 °F 72% 29.88 in 10.0 mi South 16.1 mph 23.0 mph N/A   Overcast
12:55 PM 57.2 °F 53.6 °F 88% 29.88 in 2.0 mi SSW 13.8 mph - 0.03 in   Overcast
1:15 PM 57.2 °F 53.6 °F 88% 29.87 in 3.0 mi South 13.8 mph - 0.01 in   Overcast
1:35 PM 57.2 °F 53.6 °F 88% 29.86 in 9.0 mi South 16.1 mph 21.9 mph 0.02 in   Overcast
1:55 PM 57.2 °F 53.6 °F 88% 29.86 in 8.0 mi South 13.8 mph - 0.02 in   Overcast
2:15 PM 57.2 °F 53.6 °F 88% 29.85 in 7.0 mi South 11.5 mph - 0.01 in   Overcast
2:35 PM 57.2 °F 53.6 °F 88% 29.84 in 8.0 mi South 12.7 mph - 0.02 in   Overcast
3:15 PM 57.2 °F 53.6 °F 88% 29.82 in 5.0 mi South 11.5 mph 16.1 mph 0.04 in   Overcast
3:55 PM 57.2 °F 55.4 °F 94% 29.81 in 2.5 mi South 8.1 mph - 0.31 in   Overcast
4:35 PM 59.0 °F 55.4 °F 88% 29.79 in 10.0 mi SSW 6.9 mph - 0.01 in   Overcast
4:55 PM 59.0 °F 55.4 °F 88% 29.78 in 10.0 mi SSW 8.1 mph - 0.01 in   Overcast
5:15 PM 57.2 °F 55.4 °F 94% 29.78 in 1.5 mi SW 12.7 mph 17.3 mph 0.10 in   Overcast
5:35 PM 57.2 °F 51.8 °F 82% 29.78 in 2.5 mi SSW 12.7 mph - 0.34 in   Overcast
5:55 PM 55.4 °F 51.8 °F 88% 29.78 in 3.0 mi South 6.9 mph - 0.40 in   Overcast
6:15 PM 55.4 °F 51.8 °F 88% 29.78 in 10.0 mi South 8.1 mph - N/A   Overcast
6:35 PM 55.4 °F 51.8 °F 88% 29.78 in 8.0 mi South 6.9 mph - 0.01 in   Overcast
7:15 PM 55.4 °F 51.8 °F 88% 29.79 in 10.0 mi South 12.7 mph 18.4 mph N/A   Mostly Cloudy
7:35 PM 55.4 °F 51.8 °F 88% 29.79 in 10.0 mi South 13.8 mph 19.6 mph 0.01 in   Overcast
7:55 PM 55.4 °F 51.8 °F 88% 29.78 in 10.0 mi South 13.8 mph - 0.01 in   Overcast
8:15 PM 55.4 °F 51.8 °F 88% 29.79 in 10.0 mi SSW 13.8 mph 18.4 mph N/A   Overcast
8:35 PM 55.4 °F 51.8 °F 88% 29.79 in 10.0 mi SSW 13.8 mph - N/A   Overcast
8:55 PM 55.4 °F 51.8 °F 88% 29.79 in 10.0 mi SSW 11.5 mph - N/A   Overcast
9:15 PM 55.4 °F 51.8 °F 88% 29.79 in 10.0 mi SSW 11.5 mph 18.4 mph N/A   Mostly Cloudy
9:35 PM 53.6 °F 50.0 °F 88% 29.79 in 10.0 mi South 10.4 mph - N/A   Clear
9:55 PM 53.6 °F 48.2 °F 82% 29.79 in 10.0 mi South 9.2 mph - N/A   Clear
10:35 PM 53.6 °F 48.2 °F 82% 29.78 in 10.0 mi South 9.2 mph - N/A   Scattered Clouds
10:55 PM 53.6 °F 50.0 °F 88% 29.78 in 10.0 mi South 8.1 mph - N/A   Scattered Clouds
11:15 PM 53.6 °F 48.2 °F 82% 29.78 in 10.0 mi South 10.4 mph - N/A   Scattered Clouds
11:35 PM 53.6 °F 50.0 °F 88% 29.77 in 10.0 mi South 10.4 mph - N/A   Mostly Cloudy